owner,sensor,date,latitude,longitude,vertical_datum,mass_concentration_of_oxygen_in_sea_water,qcFlag 
SCCF RECON,ioos:station:SCCF:13:1,2009-10-01T00:00:00Z,26.5255,-82.0032,2.34,5.55,1111122 
SCCF RECON,ioos:station:SCCF:13:1,2009-10-01T01:00:00Z,26.5255,-82.0032,2.43,5.14,1111122 
SCCF RECON,ioos:station:SCCF:13:1,2009-10-01T02:00:00Z,26.5255,-82.0032,2.5,4.65,1111122 
SCCF RECON,ioos:station:SCCF:13:1,2009-10-01T03:00:00Z,26.5255,-82.0032,2.58,4.96,1111122 
SCCF RECON,ioos:station:SCCF:13:1,2009-10-01T04:00:00Z,26.5255,-82.0032,2.648,4.81,1111122 
SCCF RECON,ioos:station:SCCF:13:1,2009-10-01T05:00:00Z,26.5255,-82.0032,2.67,4.84,1111122 
SCCF RECON,ioos:station:SCCF:13:1,2009-10-01T06:00:00Z,26.5255,-82.0032,2.64,4.79,1111122 
SCCF RECON,ioos:station:SCCF:13:1,2009-10-01T07:00:00Z,26.5255,-82.0032,2.551,4.52,1111122 
SCCF RECON,ioos:station:SCCF:13:1,2009-10-01T08:00:00Z,26.5255,-82.0032,2.43,4.53,1111122 
SCCF RECON,ioos:station:SCCF:13:1,2009-10-01T09:00:00Z,26.5255,-82.0032,2.35,4.53,1111122 
SCCF RECON,ioos:station:SCCF:13:1,2009-10-01T10:00:00Z,26.5255,-82.0032,2.335,4.87,1111122 
SCCF RECON,ioos:station:SCCF:13:1,2009-10-01T11:00:00Z,26.5255,-82.0032,2.37,5.11,1111122 
SCCF RECON,ioos:station:SCCF:13:1,2009-10-01T12:00:00Z,26.5255,-82.0032,2.405,5.04,1111122 
SCCF RECON,ioos:station:SCCF:13:1,2009-10-01T13:00:00Z,26.5255,-82.0032,2.52,3.91,1111122 
SCCF RECON,ioos:station:SCCF:13:1,2009-10-01T14:00:00Z,26.5255,-82.0032,2.6,3.83,1111122 
SCCF RECON,ioos:station:SCCF:13:1,2009-10-01T15:00:00Z,26.5255,-82.0032,2.66,4.23,1111122 
SCCF RECON,ioos:station:SCCF:13:1,2009-10-01T16:00:00Z,26.5255,-82.0032,2.7,4.51,1111122 
SCCF RECON,ioos:station:SCCF:13:1,2009-10-01T17:00:00Z,26.5255,-82.0032,2.709,4.88,1111122 
SCCF RECON,ioos:station:SCCF:13:1,2009-10-01T18:00:00Z,26.5255,-82.0032,2.67,5.19,1111122 
SCCF RECON,ioos:station:SCCF:13:1,2009-10-01T19:00:00Z,26.5255,-82.0032,2.572,4.92,1111122 
SCCF RECON,ioos:station:SCCF:13:1,2009-10-01T20:00:00Z,26.5255,-82.0032,2.46,4.85,1111122 
SCCF RECON,ioos:station:SCCF:13:1,2009-10-01T21:00:00Z,26.5255,-82.0032,2.386,5.05,1111122 
SCCF RECON,ioos:station:SCCF:13:1,2009-10-01T22:00:00Z,26.5255,-82.0032,2.319,5.32,1111122 
SCCF RECON,ioos:station:SCCF:13:1,2009-10-01T23:00:00Z,26.5255,-82.0032,2.28,5.41,1111122 
SCCF RECON,ioos:station:SCCF:13:1,2009-10-02T00:00:00Z,26.5255,-82.0032,2.29,5.44,1111122 
SCCF RECON,ioos:station:SCCF:13:1,2009-10-02T01:00:00Z,26.5255,-82.0032,2.39,5.13,1111122 
SCCF RECON,ioos:station:SCCF:13:1,2009-10-02T02:00:00Z,26.5255,-82.0032,2.514,4.45,1111122 
SCCF RECON,ioos:station:SCCF:13:1,2009-10-02T03:00:00Z,26.5255,-82.0032,2.59,4.66,1111122 
SCCF RECON,ioos:station:SCCF:13:1,2009-10-02T04:00:00Z,26.5255,-82.0032,2.66,4.93,1111122 
SCCF RECON,ioos:station:SCCF:13:1,2009-10-02T05:00:00Z,26.5255,-82.0032,2.71,4.99,1111122 
SCCF RECON,ioos:station:SCCF:13:1,2009-10-02T06:00:00Z,26.5255,-82.0032,2.68,5.0,1111122 
SCCF RECON,ioos:station:SCCF:13:1,2009-10-02T07:00:00Z,26.5255,-82.0032,2.585,4.8,1111122 
SCCF RECON,ioos:station:SCCF:13:1,2009-10-02T08:00:00Z,26.5255,-82.0032,2.48,4.86,1111122 
SCCF RECON,ioos:station:SCCF:13:1,2009-10-02T09:00:00Z,26.5255,-82.0032,2.39,4.36,1111122 
SCCF RECON,ioos:station:SCCF:13:1,2009-10-02T10:00:00Z,26.5255,-82.0032,2.321,4.67,1111122 
SCCF RECON,ioos:station:SCCF:13:1,2009-10-02T11:00:00Z,26.5255,-82.0032,2.3,4.77,1111122 
SCCF RECON,ioos:station:SCCF:13:1,2009-10-02T12:00:00Z,26.5255,-82.0032,2.342,4.93,1111122 
SCCF RECON,ioos:station:SCCF:13:1,2009-10-02T13:00:00Z,26.5255,-82.0032,2.458,4.43,1111122 
SCCF RECON,ioos:station:SCCF:13:1,2009-10-02T14:00:00Z,26.5255,-82.0032,2.558,3.81,1111122 
SCCF RECON,ioos:station:SCCF:13:1,2009-10-02T15:00:00Z,26.5255,-82.0032,2.63,4.1,1111122 
SCCF RECON,ioos:station:SCCF:13:1,2009-10-02T16:00:00Z,26.5255,-82.0032,2.69,4.36,1111122 
SCCF RECON,ioos:station:SCCF:13:1,2009-10-02T17:00:00Z,26.5255,-82.0032,2.74,5.15,1111122 
SCCF RECON,ioos:station:SCCF:13:1,2009-10-02T18:00:00Z,26.5255,-82.0032,2.732,5.51,1111122 
SCCF RECON,ioos:station:SCCF:13:1,2009-10-02T19:00:00Z,26.5255,-82.0032,2.65,5.85,1111122 
SCCF RECON,ioos:station:SCCF:13:1,2009-10-02T20:00:00Z,26.5255,-82.0032,2.52,5.88,1111122 
SCCF RECON,ioos:station:SCCF:13:1,2009-10-02T21:00:00Z,26.5255,-82.0032,2.413,5.43,1111122 
SCCF RECON,ioos:station:SCCF:13:1,2009-10-02T22:00:00Z,26.5255,-82.0032,2.365,5.41,1111122 
SCCF RECON,ioos:station:SCCF:13:1,2009-10-02T23:00:00Z,26.5255,-82.0032,2.32,5.15,1111122 
SCCF RECON,ioos:station:SCCF:13:1,2009-10-03T00:00:00Z,26.5255,-82.0032,2.3,5.16,1111122 
SCCF RECON,ioos:station:SCCF:13:1,2009-10-03T01:00:00Z,26.5255,-82.0032,2.37,5.28,1111122 
SCCF RECON,ioos:station:SCCF:13:1,2009-10-03T02:00:00Z,26.5255,-82.0032,2.49,4.89,1111122 
SCCF RECON,ioos:station:SCCF:13:1,2009-10-03T03:00:00Z,26.5255,-82.0032,2.58,4.68,1111122 
SCCF RECON,ioos:station:SCCF:13:1,2009-10-03T04:00:00Z,26.5255,-82.0032,2.633,4.65,1111122 
SCCF RECON,ioos:station:SCCF:13:1,2009-10-03T05:00:00Z,26.5255,-82.0032,2.687,5.03,1111122 
SCCF RECON,ioos:station:SCCF:13:1,2009-10-03T06:00:00Z,26.5255,-82.0032,2.7,4.9,1111122 
SCCF RECON,ioos:station:SCCF:13:1,2009-10-03T07:00:00Z,26.5255,-82.0032,2.64,4.75,1111122 
SCCF RECON,ioos:station:SCCF:13:1,2009-10-03T08:00:00Z,26.5255,-82.0032,2.53,4.65,1111122 
SCCF RECON,ioos:station:SCCF:13:1,2009-10-03T09:00:00Z,26.5255,-82.0032,2.41,4.29,1111122 
SCCF RECON,ioos:station:SCCF:13:1,2009-10-03T10:00:00Z,26.5255,-82.0032,2.32,4.38,1111122 
SCCF RECON,ioos:station:SCCF:13:1,2009-10-03T11:00:00Z,26.5255,-82.0032,2.256,4.53,1111122 
SCCF RECON,ioos:station:SCCF:13:1,2009-10-03T12:00:00Z,26.5255,-82.0032,2.22,4.42,1111122 
SCCF RECON,ioos:station:SCCF:13:1,2009-10-03T13:00:00Z,26.5255,-82.0032,2.28,4.39,1111122 
SCCF RECON,ioos:station:SCCF:13:1,2009-10-03T14:00:00Z,26.5255,-82.0032,2.45,4.26,1111122 
SCCF RECON,ioos:station:SCCF:13:1,2009-10-03T15:00:00Z,26.5255,-82.0032,2.55,4.03,1111122 
SCCF RECON,ioos:station:SCCF:13:1,2009-10-03T16:00:00Z,26.5255,-82.0032,2.61,4.2,1111122 
SCCF RECON,ioos:station:SCCF:13:1,2009-10-03T17:00:00Z,26.5255,-82.0032,2.679,4.76,1111122 
SCCF RECON,ioos:station:SCCF:13:1,2009-10-03T18:00:00Z,26.5255,-82.0032,2.709,5.23,1111122 
SCCF RECON,ioos:station:SCCF:13:1,2009-10-03T19:00:00Z,26.5255,-82.0032,2.669,5.82,1111122 
SCCF RECON,ioos:station:SCCF:13:1,2009-10-03T20:00:00Z,26.5255,-82.0032,2.57,5.8,1111122 
SCCF RECON,ioos:station:SCCF:13:1,2009-10-03T21:00:00Z,26.5255,-82.0032,2.477,5.89,1111122 
SCCF RECON,ioos:station:SCCF:13:1,2009-10-03T22:00:00Z,26.5255,-82.0032,2.4,5.39,1111122 
SCCF RECON,ioos:station:SCCF:13:1,2009-10-03T23:00:00Z,26.5255,-82.0032,2.34,5.22,1111122 
SCCF RECON,ioos:station:SCCF:13:1,2009-10-04T00:00:00Z,26.5255,-82.0032,2.3,5.05,1111122 
SCCF RECON,ioos:station:SCCF:13:1,2009-10-04T01:00:00Z,26.5255,-82.0032,2.33,5.05,1111122 
SCCF RECON,ioos:station:SCCF:13:1,2009-10-04T02:00:00Z,26.5255,-82.0032,2.47,4.71,1111122 
SCCF RECON,ioos:station:SCCF:13:1,2009-10-04T03:00:00Z,26.5255,-82.0032,2.581,4.54,1111122 
SCCF RECON,ioos:station:SCCF:13:1,2009-10-04T04:00:00Z,26.5255,-82.0032,2.66,4.46,1111122 
SCCF RECON,ioos:station:SCCF:13:1,2009-10-04T05:00:00Z,26.5255,-82.0032,2.71,4.81,1111122 
SCCF RECON,ioos:station:SCCF:13:1,2009-10-04T06:00:00Z,26.5255,-82.0032,2.73,4.7,1111122 
SCCF RECON,ioos:station:SCCF:13:1,2009-10-04T07:00:00Z,26.5255,-82.0032,2.69,4.57,1111122 
SCCF RECON,ioos:station:SCCF:13:1,2009-10-04T08:00:00Z,26.5255,-82.0032,2.57,4.41,1111122 
SCCF RECON,ioos:station:SCCF:13:1,2009-10-04T09:00:00Z,26.5255,-82.0032,2.44,4.2,1111122 
SCCF RECON,ioos:station:SCCF:13:1,2009-10-04T10:00:00Z,26.5255,-82.0032,2.35,4.43,1111122 
SCCF RECON,ioos:station:SCCF:13:1,2009-10-04T11:00:00Z,26.5255,-82.0032,2.27,4.58,1111122 
SCCF RECON,ioos:station:SCCF:13:1,2009-10-04T12:00:00Z,26.5255,-82.0032,2.2,4.47,1111122 
SCCF RECON,ioos:station:SCCF:13:1,2009-10-04T13:00:00Z,26.5255,-82.0032,2.18,4.43,1111122 
SCCF RECON,ioos:station:SCCF:13:1,2009-10-04T14:00:00Z,26.5255,-82.0032,2.3,4.55,1111122 
SCCF RECON,ioos:station:SCCF:13:1,2009-10-04T15:00:00Z,26.5255,-82.0032,2.454,4.42,1111122 
SCCF RECON,ioos:station:SCCF:13:1,2009-10-04T16:00:00Z,26.5255,-82.0032,2.541,4.09,1111122 
SCCF RECON,ioos:station:SCCF:13:1,2009-10-04T17:00:00Z,26.5255,-82.0032,2.606,4.24,1111122 
SCCF RECON,ioos:station:SCCF:13:1,2009-10-04T18:00:00Z,26.5255,-82.0032,2.659,4.76,1111122 
SCCF RECON,ioos:station:SCCF:13:1,2009-10-04T19:00:00Z,26.5255,-82.0032,2.661,5.15,1111122 
SCCF RECON,ioos:station:SCCF:13:1,2009-10-04T20:00:00Z,26.5255,-82.0032,2.625,5.57,1111122 
SCCF RECON,ioos:station:SCCF:13:1,2009-10-04T21:00:00Z,26.5255,-82.0032,2.56,5.69,1111122 
SCCF RECON,ioos:station:SCCF:13:1,2009-10-04T22:00:00Z,26.5255,-82.0032,2.48,5.36,1111122 
SCCF RECON,ioos:station:SCCF:13:1,2009-10-04T23:00:00Z,26.5255,-82.0032,2.41,5.07,1111122 
SCCF RECON,ioos:station:SCCF:13:1,2009-10-05T00:00:00Z,26.5255,-82.0032,2.38,5.01,1111122 
SCCF RECON,ioos:station:SCCF:13:1,2009-10-05T01:00:00Z,26.5255,-82.0032,2.39,5.1,1111122 
SCCF RECON,ioos:station:SCCF:13:1,2009-10-05T02:00:00Z,26.5255,-82.0032,2.47,4.59,1111122 
SCCF RECON,ioos:station:SCCF:13:1,2009-10-05T03:00:00Z,26.5255,-82.0032,2.6,4.19,1111122 
SCCF RECON,ioos:station:SCCF:13:1,2009-10-05T04:00:00Z,26.5255,-82.0032,2.68,4.61,1111122 
SCCF RECON,ioos:station:SCCF:13:1,2009-10-05T05:00:00Z,26.5255,-82.0032,2.73,4.81,1111122 
SCCF RECON,ioos:station:SCCF:13:1,2009-10-05T06:00:00Z,26.5255,-82.0032,2.769,4.68,1111122 
SCCF RECON,ioos:station:SCCF:13:1,2009-10-05T07:00:00Z,26.5255,-82.0032,2.77,4.68,1111122 
SCCF RECON,ioos:station:SCCF:13:1,2009-10-05T08:00:00Z,26.5255,-82.0032,2.69,4.56,1111122 
SCCF RECON,ioos:station:SCCF:13:1,2009-10-05T09:00:00Z,26.5255,-82.0032,2.559,4.37,1111122 
SCCF RECON,ioos:station:SCCF:13:1,2009-10-05T10:00:00Z,26.5255,-82.0032,2.44,4.25,1111122 
SCCF RECON,ioos:station:SCCF:13:1,2009-10-05T11:00:00Z,26.5255,-82.0032,2.351,4.41,1111122 
SCCF RECON,ioos:station:SCCF:13:1,2009-10-05T12:00:00Z,26.5255,-82.0032,2.27,4.35,1111122 
SCCF RECON,ioos:station:SCCF:13:1,2009-10-05T13:00:00Z,26.5255,-82.0032,2.2,4.43,1111122 
SCCF RECON,ioos:station:SCCF:13:1,2009-10-05T14:00:00Z,26.5255,-82.0032,2.25,4.51,1111122 
SCCF RECON,ioos:station:SCCF:13:1,2009-10-05T15:00:00Z,26.5255,-82.0032,2.421,4.49,1111122 
SCCF RECON,ioos:station:SCCF:13:1,2009-10-05T16:00:00Z,26.5255,-82.0032,2.525,4.34,1111122 
SCCF RECON,ioos:station:SCCF:13:1,2009-10-05T17:00:00Z,26.5255,-82.0032,2.59,4.28,1111122 
SCCF RECON,ioos:station:SCCF:13:1,2009-10-05T18:00:00Z,26.5255,-82.0032,2.645,4.92,1111122 
SCCF RECON,ioos:station:SCCF:13:1,2009-10-05T19:00:00Z,26.5255,-82.0032,2.67,5.23,1111122 
SCCF RECON,ioos:station:SCCF:13:1,2009-10-05T20:00:00Z,26.5255,-82.0032,2.66,5.39,1111122 
SCCF RECON,ioos:station:SCCF:13:1,2009-10-05T21:00:00Z,26.5255,-82.0032,2.61,5.34,1111122 
SCCF RECON,ioos:station:SCCF:13:1,2009-10-05T22:00:00Z,26.5255,-82.0032,2.54,4.93,1111122 
SCCF RECON,ioos:station:SCCF:13:1,2009-10-05T23:00:00Z,26.5255,-82.0032,2.48,4.82,1111122 
SCCF RECON,ioos:station:SCCF:13:1,2009-10-06T00:00:00Z,26.5255,-82.0032,2.425,4.91,1111122 
SCCF RECON,ioos:station:SCCF:13:1,2009-10-06T01:00:00Z,26.5255,-82.0032,2.4,5.2,1111122 
SCCF RECON,ioos:station:SCCF:13:1,2009-10-06T02:00:00Z,26.5255,-82.0032,2.456,5.19,1111122 
SCCF RECON,ioos:station:SCCF:13:1,2009-10-06T03:00:00Z,26.5255,-82.0032,2.57,4.66,1111122 
SCCF RECON,ioos:station:SCCF:13:1,2009-10-06T04:00:00Z,26.5255,-82.0032,2.66,4.18,1111122 
SCCF RECON,ioos:station:SCCF:13:1,2009-10-06T05:00:00Z,26.5255,-82.0032,2.73,4.37,1111122 
SCCF RECON,ioos:station:SCCF:13:1,2009-10-06T06:00:00Z,26.5255,-82.0032,2.78,4.56,1111122 
SCCF RECON,ioos:station:SCCF:13:1,2009-10-06T07:00:00Z,26.5255,-82.0032,2.79,4.55,1111122 
SCCF RECON,ioos:station:SCCF:13:1,2009-10-06T08:00:00Z,26.5255,-82.0032,2.741,4.37,1111122 
SCCF RECON,ioos:station:SCCF:13:1,2009-10-06T09:00:00Z,26.5255,-82.0032,2.63,4.23,1111122 
SCCF RECON,ioos:station:SCCF:13:1,2009-10-06T10:00:00Z,26.5255,-82.0032,2.5,4.05,1111122 
SCCF RECON,ioos:station:SCCF:13:1,2009-10-06T11:00:00Z,26.5255,-82.0032,2.41,4.14,1111122 
SCCF RECON,ioos:station:SCCF:13:1,2009-10-06T12:00:00Z,26.5255,-82.0032,2.322,4.35,1111122 
SCCF RECON,ioos:station:SCCF:13:1,2009-10-06T13:00:00Z,26.5255,-82.0032,2.231,4.36,1111122 
SCCF RECON,ioos:station:SCCF:13:1,2009-10-06T14:00:00Z,26.5255,-82.0032,2.18,4.38,1111122 
SCCF RECON,ioos:station:SCCF:13:1,2009-10-06T15:00:00Z,26.5255,-82.0032,2.241,4.47,1111122 
SCCF RECON,ioos:station:SCCF:13:1,2009-10-06T16:00:00Z,26.5255,-82.0032,2.417,4.53,1111122 
SCCF RECON,ioos:station:SCCF:13:1,2009-10-06T17:00:00Z,26.5255,-82.0032,2.5,4.43,1111122 
SCCF RECON,ioos:station:SCCF:13:1,2009-10-06T18:00:00Z,26.5255,-82.0032,2.555,4.37,1111122 
SCCF RECON,ioos:station:SCCF:13:1,2009-10-06T19:00:00Z,26.5255,-82.0032,2.61,4.57,1111122 
SCCF RECON,ioos:station:SCCF:13:1,2009-10-06T20:00:00Z,26.5255,-82.0032,2.64,4.87,1111122 
SCCF RECON,ioos:station:SCCF:13:1,2009-10-06T21:00:00Z,26.5255,-82.0032,2.627,5.12,1111122 
SCCF RECON,ioos:station:SCCF:13:1,2009-10-06T22:00:00Z,26.5255,-82.0032,2.57,5.2,1111122 
SCCF RECON,ioos:station:SCCF:13:1,2009-10-06T23:00:00Z,26.5255,-82.0032,2.52,4.97,1111122 
SCCF RECON,ioos:station:SCCF:13:1,2009-10-07T00:00:00Z,26.5255,-82.0032,2.48,4.81,1111122 
SCCF RECON,ioos:station:SCCF:13:1,2009-10-07T01:00:00Z,26.5255,-82.0032,2.47,4.61,1111122 
SCCF RECON,ioos:station:SCCF:13:1,2009-10-07T02:00:00Z,26.5255,-82.0032,2.493,4.85,1111122 
SCCF RECON,ioos:station:SCCF:13:1,2009-10-07T03:00:00Z,26.5255,-82.0032,2.58,4.66,1111122 
SCCF RECON,ioos:station:SCCF:13:1,2009-10-07T04:00:00Z,26.5255,-82.0032,2.69,4.0,1111122 
SCCF RECON,ioos:station:SCCF:13:1,2009-10-07T05:00:00Z,26.5255,-82.0032,2.77,4.57,1111122 
SCCF RECON,ioos:station:SCCF:13:1,2009-10-07T06:00:00Z,26.5255,-82.0032,2.801,4.72,1111122 
SCCF RECON,ioos:station:SCCF:13:1,2009-10-07T07:00:00Z,26.5255,-82.0032,2.842,4.55,1111122 
SCCF RECON,ioos:station:SCCF:13:1,2009-10-07T08:00:00Z,26.5255,-82.0032,2.82,4.61,1111122 
SCCF RECON,ioos:station:SCCF:13:1,2009-10-07T09:00:00Z,26.5255,-82.0032,2.73,4.47,1111122 
SCCF RECON,ioos:station:SCCF:13:1,2009-10-07T10:00:00Z,26.5255,-82.0032,2.62,4.37,1111122 
SCCF RECON,ioos:station:SCCF:13:1,2009-10-07T11:00:00Z,26.5255,-82.0032,2.512,4.11,1111122 
SCCF RECON,ioos:station:SCCF:13:1,2009-10-07T12:00:00Z,26.5255,-82.0032,2.43,4.31,1111122 
SCCF RECON,ioos:station:SCCF:13:1,2009-10-07T13:00:00Z,26.5255,-82.0032,2.341,4.39,1111122 
SCCF RECON,ioos:station:SCCF:13:1,2009-10-07T14:00:00Z,26.5255,-82.0032,2.267,4.36,1111122 
SCCF RECON,ioos:station:SCCF:13:1,2009-10-07T15:00:00Z,26.5255,-82.0032,2.23,4.45,1111122 
SCCF RECON,ioos:station:SCCF:13:1,2009-10-07T16:00:00Z,26.5255,-82.0032,2.311,4.58,1111122 
SCCF RECON,ioos:station:SCCF:13:1,2009-10-07T17:00:00Z,26.5255,-82.0032,2.438,4.65,1111122 
SCCF RECON,ioos:station:SCCF:13:1,2009-10-07T18:00:00Z,26.5255,-82.0032,2.49,4.58,1111122 
SCCF RECON,ioos:station:SCCF:13:1,2009-10-07T19:00:00Z,26.5255,-82.0032,2.53,4.68,1111122 
SCCF RECON,ioos:station:SCCF:13:1,2009-10-07T20:00:00Z,26.5255,-82.0032,2.574,4.62,1111122 
SCCF RECON,ioos:station:SCCF:13:1,2009-10-07T21:00:00Z,26.5255,-82.0032,2.588,5.23,1111122 
SCCF RECON,ioos:station:SCCF:13:1,2009-10-07T22:00:00Z,26.5255,-82.0032,2.58,5.38,1111122 
SCCF RECON,ioos:station:SCCF:13:1,2009-10-07T23:00:00Z,26.5255,-82.0032,2.538,4.97,1111122 
SCCF RECON,ioos:station:SCCF:13:1,2009-10-08T00:00:00Z,26.5255,-82.0032,2.492,4.86,1111122 
SCCF RECON,ioos:station:SCCF:13:1,2009-10-08T01:00:00Z,26.5255,-82.0032,2.45,4.44,1111122 
SCCF RECON,ioos:station:SCCF:13:1,2009-10-08T02:00:00Z,26.5255,-82.0032,2.44,4.68,1111122 
SCCF RECON,ioos:station:SCCF:13:1,2009-10-08T03:00:00Z,26.5255,-82.0032,2.5,4.76,1111122 
SCCF RECON,ioos:station:SCCF:13:1,2009-10-08T04:00:00Z,26.5255,-82.0032,2.59,3.41,1111122 
SCCF RECON,ioos:station:SCCF:13:1,2009-10-08T05:00:00Z,26.5255,-82.0032,2.675,3.99,1111122 
SCCF RECON,ioos:station:SCCF:13:1,2009-10-08T06:00:00Z,26.5255,-82.0032,2.74,4.55,1111122 
SCCF RECON,ioos:station:SCCF:13:1,2009-10-08T07:00:00Z,26.5255,-82.0032,2.77,4.59,1111122 
SCCF RECON,ioos:station:SCCF:13:1,2009-10-08T08:00:00Z,26.5255,-82.0032,2.776,4.39,1111122 
SCCF RECON,ioos:station:SCCF:13:1,2009-10-08T09:00:00Z,26.5255,-82.0032,2.73,4.56,1111122 
SCCF RECON,ioos:station:SCCF:13:1,2009-10-08T10:00:00Z,26.5255,-82.0032,2.64,4.26,1111122 
SCCF RECON,ioos:station:SCCF:13:1,2009-10-08T11:00:00Z,26.5255,-82.0032,2.522,4.11,1111122 
SCCF RECON,ioos:station:SCCF:13:1,2009-10-08T12:00:00Z,26.5255,-82.0032,2.43,4.29,1111122 
SCCF RECON,ioos:station:SCCF:13:1,2009-10-08T13:00:00Z,26.5255,-82.0032,2.35,4.56,1111122 
SCCF RECON,ioos:station:SCCF:13:1,2009-10-08T14:00:00Z,26.5255,-82.0032,2.26,4.52,1111122 
SCCF RECON,ioos:station:SCCF:13:1,2009-10-08T15:00:00Z,26.5255,-82.0032,2.187,4.59,1111122 
SCCF RECON,ioos:station:SCCF:13:1,2009-10-08T16:00:00Z,26.5255,-82.0032,2.159,4.78,1111122 
SCCF RECON,ioos:station:SCCF:13:1,2009-10-08T17:00:00Z,26.5255,-82.0032,2.24,4.89,1111122 
SCCF RECON,ioos:station:SCCF:13:1,2009-10-08T18:00:00Z,26.5255,-82.0032,2.34,5.03,1111122 
SCCF RECON,ioos:station:SCCF:13:1,2009-10-08T19:00:00Z,26.5255,-82.0032,2.401,4.62,1111122 
SCCF RECON,ioos:station:SCCF:13:1,2009-10-08T20:00:00Z,26.5255,-82.0032,2.46,5.1,1111122 
SCCF RECON,ioos:station:SCCF:13:1,2009-10-08T21:00:00Z,26.5255,-82.0032,2.5,4.82,1111122 
SCCF RECON,ioos:station:SCCF:13:1,2009-10-08T22:00:00Z,26.5255,-82.0032,2.53,5.37,1111122 
SCCF RECON,ioos:station:SCCF:13:1,2009-10-08T23:00:00Z,26.5255,-82.0032,2.53,5.13,1111122 
SCCF RECON,ioos:station:SCCF:13:1,2009-10-09T00:00:00Z,26.5255,-82.0032,2.51,5.24,1111122 
SCCF RECON,ioos:station:SCCF:13:1,2009-10-09T01:00:00Z,26.5255,-82.0032,2.49,4.48,1111122 
SCCF RECON,ioos:station:SCCF:13:1,2009-10-09T02:00:00Z,26.5255,-82.0032,2.48,4.7,1111122 
SCCF RECON,ioos:station:SCCF:13:1,2009-10-09T03:00:00Z,26.5255,-82.0032,2.53,4.77,1111122 
SCCF RECON,ioos:station:SCCF:13:1,2009-10-09T04:00:00Z,26.5255,-82.0032,2.62,3.38,1111122 
SCCF RECON,ioos:station:SCCF:13:1,2009-10-09T05:00:00Z,26.5255,-82.0032,2.68,4.43,1111122 
SCCF RECON,ioos:station:SCCF:13:1,2009-10-09T06:00:00Z,26.5255,-82.0032,2.724,4.76,1111122 
SCCF RECON,ioos:station:SCCF:13:1,2009-10-09T07:00:00Z,26.5255,-82.0032,2.741,4.6,1111122 
SCCF RECON,ioos:station:SCCF:13:1,2009-10-09T08:00:00Z,26.5255,-82.0032,2.773,4.5,1111122 
SCCF RECON,ioos:station:SCCF:13:1,2009-10-09T09:00:00Z,26.5255,-82.0032,2.8,4.43,1111122 
SCCF RECON,ioos:station:SCCF:13:1,2009-10-09T10:00:00Z,26.5255,-82.0032,2.78,4.42,1111122 
SCCF RECON,ioos:station:SCCF:13:1,2009-10-09T11:00:00Z,26.5255,-82.0032,2.69,4.11,1111122 
SCCF RECON,ioos:station:SCCF:13:1,2009-10-09T12:00:00Z,26.5255,-82.0032,2.59,4.08,1111122 
SCCF RECON,ioos:station:SCCF:13:1,2009-10-09T13:00:00Z,26.5255,-82.0032,2.49,4.11,1111122 
SCCF RECON,ioos:station:SCCF:13:1,2009-10-09T14:00:00Z,26.5255,-82.0032,2.4,4.52,1111122 
SCCF RECON,ioos:station:SCCF:13:1,2009-10-09T15:00:00Z,26.5255,-82.0032,2.303,4.63,1111122 
SCCF RECON,ioos:station:SCCF:13:1,2009-10-09T16:00:00Z,26.5255,-82.0032,2.23,4.76,1111122 
SCCF RECON,ioos:station:SCCF:13:1,2009-10-09T17:00:00Z,26.5255,-82.0032,2.211,4.86,1111122 
SCCF RECON,ioos:station:SCCF:13:1,2009-10-09T18:00:00Z,26.5255,-82.0032,2.29,5.05,1111122 
SCCF RECON,ioos:station:SCCF:13:1,2009-10-09T19:00:00Z,26.5255,-82.0032,2.374,5.14,1111122 
SCCF RECON,ioos:station:SCCF:13:1,2009-10-09T20:00:00Z,26.5255,-82.0032,2.41,4.45,1111122 
SCCF RECON,ioos:station:SCCF:13:1,2009-10-09T21:00:00Z,26.5255,-82.0032,2.45,5.29,1111122 
SCCF RECON,ioos:station:SCCF:13:1,2009-10-09T22:00:00Z,26.5255,-82.0032,2.48,4.67,1111122 
SCCF RECON,ioos:station:SCCF:13:1,2009-10-09T23:00:00Z,26.5255,-82.0032,2.52,5.19,1111122 
SCCF RECON,ioos:station:SCCF:13:1,2009-10-10T00:00:00Z,26.5255,-82.0032,2.55,5.58,1111122 
SCCF RECON,ioos:station:SCCF:13:1,2009-10-10T01:00:00Z,26.5255,-82.0032,2.56,5.21,1111122 
SCCF RECON,ioos:station:SCCF:13:1,2009-10-10T02:00:00Z,26.5255,-82.0032,2.542,4.81,1111122 
SCCF RECON,ioos:station:SCCF:13:1,2009-10-10T03:00:00Z,26.5255,-82.0032,2.542,4.92,1111122 
SCCF RECON,ioos:station:SCCF:13:1,2009-10-10T04:00:00Z,26.5255,-82.0032,2.57,4.54,1111122 
SCCF RECON,ioos:station:SCCF:13:1,2009-10-10T05:00:00Z,26.5255,-82.0032,2.61,3.26,1111122 
SCCF RECON,ioos:station:SCCF:13:1,2009-10-10T06:00:00Z,26.5255,-82.0032,2.67,4.84,1111122 
SCCF RECON,ioos:station:SCCF:13:1,2009-10-10T07:00:00Z,26.5255,-82.0032,2.72,4.94,1111122 
SCCF RECON,ioos:station:SCCF:13:1,2009-10-10T08:00:00Z,26.5255,-82.0032,2.76,4.83,1111122 
SCCF RECON,ioos:station:SCCF:13:1,2009-10-10T09:00:00Z,26.5255,-82.0032,2.78,4.64,1111122 
SCCF RECON,ioos:station:SCCF:13:1,2009-10-10T10:00:00Z,26.5255,-82.0032,2.773,4.32,1111122 
SCCF RECON,ioos:station:SCCF:13:1,2009-10-10T11:00:00Z,26.5255,-82.0032,2.74,4.14,1111122 
SCCF RECON,ioos:station:SCCF:13:1,2009-10-10T12:00:00Z,26.5255,-82.0032,2.68,3.95,1111122 
SCCF RECON,ioos:station:SCCF:13:1,2009-10-10T13:00:00Z,26.5255,-82.0032,2.581,4.13,1111122 
SCCF RECON,ioos:station:SCCF:13:1,2009-10-10T14:00:00Z,26.5255,-82.0032,2.488,4.66,1111122 
SCCF RECON,ioos:station:SCCF:13:1,2009-10-10T15:00:00Z,26.5255,-82.0032,2.39,4.77,1111122 
SCCF RECON,ioos:station:SCCF:13:1,2009-10-10T16:00:00Z,26.5255,-82.0032,2.29,5.0,1111122 
SCCF RECON,ioos:station:SCCF:13:1,2009-10-10T17:00:00Z,26.5255,-82.0032,2.23,5.12,1111122 
SCCF RECON,ioos:station:SCCF:13:1,2009-10-10T18:00:00Z,26.5255,-82.0032,2.21,5.18,1111122 
SCCF RECON,ioos:station:SCCF:13:1,2009-10-10T19:00:00Z,26.5255,-82.0032,2.28,5.29,1111122 
SCCF RECON,ioos:station:SCCF:13:1,2009-10-10T20:00:00Z,26.5255,-82.0032,2.346,5.41,1111122 
SCCF RECON,ioos:station:SCCF:13:1,2009-10-10T21:00:00Z,26.5255,-82.0032,2.4,4.8,1111122 
SCCF RECON,ioos:station:SCCF:13:1,2009-10-10T22:00:00Z,26.5255,-82.0032,2.434,5.43,1111122 
SCCF RECON,ioos:station:SCCF:13:1,2009-10-10T23:00:00Z,26.5255,-82.0032,2.49,4.92,1111122 
SCCF RECON,ioos:station:SCCF:13:1,2009-10-11T00:00:00Z,26.5255,-82.0032,2.53,5.2,1111122 
SCCF RECON,ioos:station:SCCF:13:1,2009-10-11T01:00:00Z,26.5255,-82.0032,2.56,5.4,1111122 
SCCF RECON,ioos:station:SCCF:13:1,2009-10-11T02:00:00Z,26.5255,-82.0032,2.58,5.32,1111122 
SCCF RECON,ioos:station:SCCF:13:1,2009-10-11T03:00:00Z,26.5255,-82.0032,2.57,5.09,1111122 
SCCF RECON,ioos:station:SCCF:13:1,2009-10-11T04:00:00Z,26.5255,-82.0032,2.55,4.59,1111122 
SCCF RECON,ioos:station:SCCF:13:1,2009-10-11T05:00:00Z,26.5255,-82.0032,2.55,4.55,1111122 
SCCF RECON,ioos:station:SCCF:13:1,2009-10-11T06:00:00Z,26.5255,-82.0032,2.57,4.66,1111122 
SCCF RECON,ioos:station:SCCF:13:1,2009-10-11T07:00:00Z,26.5255,-82.0032,2.617,3.83,1111122 
SCCF RECON,ioos:station:SCCF:13:1,2009-10-11T08:00:00Z,26.5255,-82.0032,2.661,4.12,1111122 
SCCF RECON,ioos:station:SCCF:13:1,2009-10-11T09:00:00Z,26.5255,-82.0032,2.69,4.37,1111122 
SCCF RECON,ioos:station:SCCF:13:1,2009-10-11T10:00:00Z,26.5255,-82.0032,2.71,4.38,1111122 
SCCF RECON,ioos:station:SCCF:13:1,2009-10-11T11:00:00Z,26.5255,-82.0032,2.74,4.27,1111122 
SCCF RECON,ioos:station:SCCF:13:1,2009-10-11T12:00:00Z,26.5255,-82.0032,2.74,4.05,1111122 
SCCF RECON,ioos:station:SCCF:13:1,2009-10-11T13:00:00Z,26.5255,-82.0032,2.68,3.91,1111122 
SCCF RECON,ioos:station:SCCF:13:1,2009-10-11T14:00:00Z,26.5255,-82.0032,2.568,4.11,1111122 
SCCF RECON,ioos:station:SCCF:13:1,2009-10-11T15:00:00Z,26.5255,-82.0032,2.468,4.8,1111122 
SCCF RECON,ioos:station:SCCF:13:1,2009-10-11T16:00:00Z,26.5255,-82.0032,2.381,4.98,1111122 
SCCF RECON,ioos:station:SCCF:13:1,2009-10-11T17:00:00Z,26.5255,-82.0032,2.292,5.1,1111122 
SCCF RECON,ioos:station:SCCF:13:1,2009-10-11T18:00:00Z,26.5255,-82.0032,2.211,5.1,1111122 
SCCF RECON,ioos:station:SCCF:13:1,2009-10-11T19:00:00Z,26.5255,-82.0032,2.17,5.17,1111122 
SCCF RECON,ioos:station:SCCF:13:1,2009-10-11T20:00:00Z,26.5255,-82.0032,2.213,5.22,1111122 
SCCF RECON,ioos:station:SCCF:13:1,2009-10-11T21:00:00Z,26.5255,-82.0032,2.277,5.19,1111122 